{"data":{"norad_id":58698,"intl_designator":"2024-003A","name":"OVZON-3","alt_names":[],"object_type":"PAYLOAD","status":"ACTIVE","operator":null,"country":"SWED","launch_date":"2024-01-03","launch_site_code":"AFETR","launch_vehicle":null,"mission":null,"orbit_class":"UNKNOWN","rcs_meters":null,"size_class":null,"mass_kg":null,"dimensions":null,"purposes":["comms"],"wikipedia_slug":null,"has_3d_model":false,"image_url":null,"decayed_at":null,"tle_current":{"epoch":"2026-09-19T22:23:12.661152Z","epoch_age_seconds":67247,"freshness":"FRESH","line1":"1 58698U 24003A   26262.93278543  .00000047  00000+0  00000+0 0  9993","line2":"2 58698   0.0118 184.3674 0000450 267.6671 302.3280  1.00274345  8399","mean_motion":1.00274345,"eccentricity":4.5e-5,"inclination_deg":0.0118,"raan_deg":184.3674,"arg_perigee_deg":267.6671,"mean_anomaly_deg":302.328,"bstar":0,"rev_number":839,"period_min":1436.0602405331,"perigee_km":35783.979934884,"apogee_km":35787.774696172,"semimajor_km":42164.014315528,"source":"CELESTRAK","updated_at":"2026-09-20T09:00:35.335790Z"}}}